User: anonymous   Login
Location: Unspecified
(48.7670°N, 0.0000°E)
Time: 11:11:44
(UTC+00:00)
Language:

Courier 1B - Orbit

View from above orbital plane
View from above orbital plane
View from above satellite
View from above satellite

Ground track
Ground track

The orbit data is extracted from the following two-line orbital elements,

1    58U 60013A   19287.28397319 +.00000089 +00000-0 +22541-5 0  9998
2    58 028.3275 268.5826 0165028 182.9063 177.0527 13.46319400905284
Epoch (UTC): 14 October 2019 06:48:55
Eccentricity: 0.0165028
inclination: 28.3275°
perigee height: 962 km
apogee height: 1209 km
right ascension of ascending node: 268.5826°
argument of perigee: 182.9063°
revolutions per day: 13.46319400
mean anomaly at epoch: 177.0527°
orbit number at epoch: 90528

The dashed part of the orbit path shows where the satellite is in the earth's shadow,  

DLR